This is the latest recevied weather packets stored in our database for station/object SA6BET-2. If no packets are shown the sender has not sent any weather packets the latest 10 day(s).
| Time | Temp. | Humidity | Pressure | Rain* | Wind** | Luminosity | Snow |
|---|---|---|---|---|---|---|---|
| 1778167169 | 18.33° C | 100% | 1013.4 hPa | - | - | - | - |
| 1778166269 | 18.89° C | 100% | 1013.3 hPa | - | - | - | - |
| 1778165369 | 20.56° C | 100% | 1013.2 hPa | - | - | - | - |
| 1778164512 | 20° C | 100% | 1013.3 hPa | - | - | - | - |
| 1778164469 | 20° C | 100% | 1013.3 hPa | - | - | - | - |
| 1778163569 | 20° C | 100% | 1013.4 hPa | - | - | - | - |
| 1778162668 | 20° C | 100% | 1013.3 hPa | - | - | - | - |
| 1778161768 | 19.44° C | 100% | 1013.3 hPa | - | - | - | - |
| 1778160868 | 18.89° C | 100% | 1013.6 hPa | - | - | - | - |
| 1778159968 | 17.78° C | 100% | 1013.9 hPa | - | - | - | - |
| 1778159067 | 17.78° C | 100% | 1013.9 hPa | - | - | - | - |
| 1778158167 | 18.33° C | 100% | 1014.1 hPa | - | - | - | - |
| 1778157267 | 18.89° C | 100% | 1014.1 hPa | - | - | - | - |
| 1778156366 | 18.89° C | 100% | 1014.1 hPa | - | - | - | - |
| 1778155477 | 18.89° C | 100% | 1014.1 hPa | - | - | - | - |
| 1778154576 | 18.89° C | 100% | 1014.3 hPa | - | - | - | - |
| 1778153676 | 18.89° C | 100% | 1014.1 hPa | - | - | - | - |
| 1778152775 | 18.89° C | 100% | 1014.3 hPa | - | - | - | - |
| 1778151875 | 19.44° C | 100% | 1014.6 hPa | - | - | - | - |
| 1778150975 | 19.44° C | 100% | 1014.6 hPa | - | - | - | - |
| 1778150074 | 18.89° C | 100% | 1014.7 hPa | - | - | - | - |
| 1778149174 | 18.33° C | 100% | 1014.8 hPa | - | - | - | - |
| 1778148274 | 18.33° C | 100% | 1014.7 hPa | - | - | - | - |
| 1778147374 | 18.33° C | 100% | 1014.8 hPa | - | - | - | - |
| 1778147023 | 18.89° C | 100% | 1014.7 hPa | - | - | - | - |
* Rain since midnight (hover to see other rain measurements)
** Current wind speed in m/s (hover to see current wind gust speed)